Temp
9 9 9 9 9 9 8 7 7 6 7 8 9 9 9 8 7 7 8 8 8 7 8 9 10 10 10 10 9 13 13 12 12 13 12 14 16 17 18 17 16 16 14 13 12 15 16 17 18 19 15 14 14 14
8 8 8 8 8 7 7 6 6 6 6 6 6 6 8 8 6 7 7 8 7 7 7 8 9 9 9 10 10 11 13 13 14 11 10 14 15 15 17 16 16 16 14 14 14 12 14 16 16 15 15 14 13 14
6 6 7 7 7 7 7 7 6 6 6 7 7 6 5 5 5 6 6 7 7 6 6 7 8 10 9 9 10 11 12 12 12 14 14 12 14 14 14 14 16 17 15 13 12 13 14 16 15 15 16 15 14 14
6 7 6 6 5 5 5 5 6 6 6 6 6 6 6 6 6 6 6 7 6 6 6 7 9 9 10 9 9 10 11 12 11 12 14 12 13 15 13 15 15 14 15 12 11 12 14 15 15 15 15 15 14 14
7 7 6 6 4 4 5 5 6 6 7 6 6 6 6 6 6 6 6 6 6 6 6 7 8 9 8 8 9 10 10 11 9 12 11 12 14 14 13 13 14 16 13 11 11 14 14 14 15 15 14 13 13 13
7 7 6 6 5 5 6 6 6 6 6 6 6 5 5 5 5 5 5 5 5 5 6 6 8 8 8 7 7 8 9 10 9 14 13 15 17 16 11 11 15 16 18 18 14 15 15 14 15 14 14 14 13 13
7 7 7 6 6 6 6 7 7 7 7 7 6 5 5 5 5 5 5 5 5 5 6 7 7 7 7 7 7 8 8 8 12 15 14 14 16 16 9 11 14 16 17 16 16 15 14 14 14 14 14 13 13 12
7 7 7 7 7 6 6 6 6 6 6 6 6 5 5 5 5 5 5 5 5 6 6 8 7 7 7 7 8 9 12 13 14 16 15 12 14 13 10 13 16 15 16 15 15 16 15 14 13 13 13 13 12 12
7 7 7 7 7 7 6 6 6 6 6 5 6 6 6 6 7 6 6 6 6 6 6 7 7 7 7 7 10 13 14 11 14 11 12 13 9 11 12 15 15 14 15 14 14 14 14 13 13 13 12 12 11 11
6 6 7 7 7 7 7 7 7 7 7 8 7 7 7 7 7 7 6 5 5 6 6 7 9 8 8 10 11 13 14 11 11 12 15 11 10 15 17 17 17 16 16 15 14 13 13 13 13 12 12 12 12 12
7 7 7 7 7 8 8 8 7 8 8 8 8 7 7 6 6 7 8 7 7 7 8 10 9 9 12 12 11 13 10 10 11 12 11 10 10 12 17 17 17 16 15 15 15 14 14 13 13 12 12 12 12 11
7 7 7 7 7 8 8 8 8 8 7 8 8 7 7 7 8 8 8 10 10 9 9 9 11 12 12 13 12 12 12 10 11 11 11 11 9 16 17 16 15 15 14 14 14 13 12 12 11 11 10 10 10 10
7 7 7 7 8 8 8 8 8 8 8 9 9 9 9 9 7 9 8 7 8 9 10 11 10 12 12 12 10 8 11 10 11 10 11 10 12 14 15 14 13 13 13 12 11 11 11 10 9 9 9 10 9 10
7 7 7 8 8 8 8 8 8 8 8 8 9 5 9 9 9 8 8 8 10 10 11 11 10 9 10 8 8 9 10 9 9 9 11 8 11 13 13 13 13 12 12 12 10 10 9 9 8 9 9 9 9 9
7 7 8 8 8 8 8 8 8 8 8 8 9 8 10 10 10 11 10 10 10 10 10 10 9 10 7 8 7 9 11 10 7 7 7 7 8 10 11 11 11 11 10 9 9 8 8 8 8 8 8 8 8 8
7 7 7 7 8 8 8 9 9 8 9 10 11 9 10 9 8 10 10 9 9 10 10 9 7 7 6 6 8 9 8 7 8 7 6 7 9 9 9 10 10 9 9 8 8 8 8 8 8 8 8 8 8 8
7 6 6 7 8 9 8 8 8 9 10 11 10 10 10 9 9 9 9 9 9 9 6 7 7 6 6 7 8 6 7 6 5 6 7 8 8 8 8 8 8 8 8 7 7 7 7 7 7 8 8 7 8 8
6 6 6 8 9 9 9 8 9 10 11 11 10 10 10 10 9 8 8 8 9 8 7 6 5 4 5 6 6 5 5 5 5 6 7 7 8 8 6 7 7 7 7 6 6 6 6 6 7 7 7 7 7 7
6 7 7 8 8 9 8 9 10 10 11 11 11 11 10 9 9 8 8 8 8 7 6 6 5 4 4 4 4 4 5 5 5 6 6 6 7 7 6 7 7 6 6 6 6 6 6 6 7 6 6 7 7 7
7 7 8 8 8 8 8 10 11 11 11 12 11 11 10 10 9 9 8 8 8 7 7 4 3 5 4 4 4 4 4 4 4 5 5 5 6 6 6 6 6 6 5 5 6 6 6 6 6 6 6 6 6 6
7 7 8 8 8 8 9 11 11 12 12 12 11 11 10 10 10 9 9 9 9 7 6 6 6 5 4 4 4 5 4 4 4 4 4 4 4 5 5 5 6 6 6 6 6 6 6 6 6 6 6 6 7 7
7 7 8 8 8 9 10 11 10 11 12 12 12 11 9 9 10 10 10 9 8 8 7 7 6 5 5 4 5 4 4 4 4 5 5 5 5 5 5 5 6 6 7 7 7 7 7 6 6 6 6 6 7 7
7 8 9 9 9 9 11 11 11 11 9 10 11 8 8 9 10 11 9 9 8 8 7 7 6 6 6 5 5 5 5 5 5 5 5 5 5 5 5 6 6 6 6 7 7 7 7 7 6 7 7 7 6 7
8 8 9 9 10 8 11 11 11 10 10 9 9 10 9 11 11 10 7 9 8 8 8 7 6 6 6 6 6 6 6 5 5 6 6 6 7 7 7 7 7 8 8 8 7 7 7 7 7 7 7 7 7 7
7 8 8 7 10 10 10 10 9 8 8 9 10 11 9 12 7 8 7 9 8 9 8 8 7 7 8 8 8 7 7 7 7 7 7 7 7 7 8 8 8 7 7 7 7 7 7 7 7 7 7 7 7 7
6 9 8 10 9 8 8 7 8 8 8 9 10 12 11 7 7 8 7 10 9 9 9 9 9 8 8 8 9 9 9 8 8 8 8 8 8 8 8 8 8 7 8 7 7 7 7 7 6 6 6 6 6 6
5 9 10 10 9 9 7 8 9 8 9 9 10 11 10 9 9 9 11 11 10 10 11 10 10 10 10 10 10 10 10 10 9 9 9 9 8 9 8 8 8 8 7 7 7 7 7 6 6 6 6 6 5 5
9 10 9 11 9 9 10 9 9 9 10 12 13 12 11 11 9 11 11 12 12 11 11 11 11 11 11 11 11 10 10 10 9 9 9 9 9 8 8 8 8 8 7 7 7 7 6 6 6 6 6 6 5 6
10 12 13 12 14 15 14 13 13 15 15 15 12 12 13 13 13 13 12 12 12 12 12 12 12 12 11 11 11 11 11 10 10 9 9 8 8 8 7 8 8 8 7 7 7 6 6 6 6 6 6 6 5 5
12 13 14 13 13 15 16 16 16 15 15 15 14 14 13 13 13 12 12 12 12 12 12 12 12 12 12 12 11 11 11 10 10 10 9 9 9 8 8 8 7 7 7 6 6 6 6 5 5 5 5 5 5 5
12 13 14 15 15 16 16 16 16 16 15 14 14 13 13 13 12 12 12 12 12 12 12 12 12 12 12 12 11 11 11 11 11 10 10 10 9 9 8 8 7 6 6 7 6 5 5 5 5 5 5 5 5 5
11 12 13 13 15 16 16 16 16 15 14 14 13 13 13 13 13 12 12 12 12 12 13 13 13 13 12 12 12 12 11 11 11 11 10 10 9 9 8 8 8 8 7 6 6 6 5 5 5 6 5 5 5 5
12 13 13 14 15 16 16 16 16 16 15 14 14 13 13 13 13 13 13 13 13 13 13 13 13 13 13 12 12 12 11 11 10 10 10 10 9 9 8 8 8 8 8 7 7 6 6 6 6 6 6 6 6 6
Height
1494 1489 1483 1477 1472 1467 1463 1459 1457 1455 1454 1452 1452 1453 1455 1458 1459 1461 1463 1469 1470 1468 1466 1467 1469 1470 1470 1471 1472 1465 1464 1464 1464 1475 1473 1470 1467 1472 1469 1469 1479 1484 1495 1501 1503 1502 1505 1482 1480 1484 1489 1496 1503 1506
1488 1481 1475 1469 1463 1458 1453 1449 1447 1445 1444 1444 1443 1443 1445 1448 1452 1457 1455 1459 1464 1465 1461 1460 1460 1461 1465 1466 1470 1468 1464 1466 1467 1475 1476 1469 1470 1469 1472 1479 1467 1478 1474 1485 1487 1495 1484 1481 1481 1485 1489 1495 1502 1505
1482 1476 1469 1462 1455 1448 1443 1439 1437 1435 1434 1434 1434 1435 1437 1440 1444 1449 1450 1454 1456 1458 1456 1455 1451 1453 1457 1459 1463 1466 1463 1464 1467 1467 1464 1465 1468 1467 1476 1473 1465 1462 1462 1475 1482 1488 1485 1485 1487 1489 1492 1495 1500 1504
1479 1472 1465 1459 1452 1446 1440 1436 1431 1427 1424 1424 1424 1426 1429 1434 1438 1441 1443 1446 1450 1453 1452 1446 1446 1444 1445 1452 1457 1459 1459 1459 1462 1463 1463 1462 1466 1460 1466 1460 1460 1462 1461 1472 1482 1485 1487 1488 1489 1490 1493 1496 1499 1502
1477 1471 1464 1457 1451 1446 1441 1435 1429 1422 1417 1417 1418 1420 1423 1426 1431 1435 1437 1439 1443 1449 1446 1443 1441 1440 1440 1443 1448 1452 1455 1458 1460 1459 1456 1455 1453 1456 1455 1457 1463 1459 1463 1473 1481 1475 1478 1485 1489 1492 1494 1496 1499 1501
1476 1472 1466 1460 1453 1448 1443 1438 1431 1425 1419 1416 1416 1418 1420 1423 1426 1430 1433 1435 1437 1441 1444 1442 1438 1435 1435 1436 1440 1446 1452 1456 1460 1454 1448 1445 1447 1452 1463 1472 1459 1456 1457 1458 1466 1475 1479 1484 1489 1493 1495 1497 1499 1501
1476 1473 1469 1465 1459 1454 1448 1444 1439 1433 1428 1424 1421 1421 1422 1424 1427 1429 1432 1432 1433 1439 1442 1438 1434 1433 1433 1435 1440 1445 1451 1452 1451 1448 1447 1444 1447 1448 1459 1467 1458 1460 1459 1461 1467 1472 1482 1486 1489 1492 1494 1496 1498 1500
1475 1473 1470 1467 1463 1458 1454 1450 1445 1442 1438 1434 1432 1430 1430 1431 1432 1431 1431 1431 1436 1439 1438 1434 1434 1432 1432 1437 1442 1442 1442 1444 1444 1441 1442 1443 1447 1450 1462 1457 1459 1462 1463 1467 1471 1474 1478 1484 1488 1492 1494 1496 1498 1500
1474 1472 1470 1468 1464 1461 1457 1454 1450 1446 1442 1439 1436 1434 1434 1434 1434 1435 1434 1435 1438 1441 1436 1431 1433 1437 1439 1440 1439 1438 1441 1445 1440 1439 1439 1443 1451 1456 1451 1452 1457 1461 1462 1467 1471 1474 1479 1482 1486 1489 1492 1495 1496 1497
1472 1470 1468 1466 1464 1461 1458 1456 1452 1448 1444 1441 1439 1437 1438 1439 1438 1439 1440 1440 1440 1437 1435 1432 1433 1435 1438 1436 1434 1436 1435 1437 1442 1440 1439 1445 1450 1444 1446 1449 1451 1456 1459 1463 1468 1473 1477 1480 1484 1488 1490 1492 1493 1494
1469 1468 1466 1463 1461 1460 1458 1456 1453 1449 1446 1444 1443 1444 1444 1443 1442 1440 1438 1439 1437 1438 1435 1431 1434 1435 1437 1434 1435 1434 1437 1439 1445 1443 1444 1448 1450 1441 1443 1446 1449 1453 1458 1462 1466 1470 1474 1477 1482 1485 1487 1489 1490 1490
1467 1466 1463 1460 1459 1458 1458 1457 1454 1451 1450 1448 1447 1447 1447 1445 1442 1441 1438 1435 1434 1438 1435 1435 1432 1433 1435 1436 1433 1436 1436 1440 1446 1439 1444 1447 1442 1437 1438 1443 1449 1453 1457 1461 1465 1468 1472 1476 1480 1483 1485 1487 1488 1489
1466 1464 1461 1460 1459 1458 1458 1457 1455 1453 1450 1448 1448 1447 1447 1446 1446 1443 1446 1443 1440 1438 1438 1436 1433 1431 1434 1439 1439 1441 1440 1444 1438 1445 1445 1443 1437 1436 1437 1442 1448 1453 1456 1460 1464 1468 1471 1475 1478 1480 1483 1485 1486 1487
1464 1462 1461 1460 1460 1459 1458 1457 1455 1452 1450 1449 1448 1451 1448 1447 1448 1448 1447 1445 1443 1441 1436 1435 1434 1435 1440 1443 1445 1447 1442 1442 1448 1450 1445 1443 1439 1437 1439 1442 1446 1452 1456 1461 1464 1468 1472 1475 1478 1480 1482 1484 1485 1485
1462 1461 1460 1460 1459 1459 1458 1457 1454 1452 1451 1450 1450 1453 1449 1448 1447 1446 1445 1444 1443 1442 1441 1439 1439 1440 1445 1449 1452 1446 1443 1446 1452 1455 1451 1448 1446 1444 1443 1446 1449 1454 1458 1463 1466 1470 1473 1476 1479 1481 1482 1483 1484 1486
1461 1460 1459 1458 1458 1458 1457 1455 1453 1452 1452 1451 1451 1451 1450 1449 1449 1447 1446 1445 1444 1442 1442 1442 1442 1445 1451 1450 1450 1448 1448 1454 1453 1454 1451 1449 1449 1451 1452 1454 1456 1459 1461 1465 1468 1471 1474 1476 1479 1481 1483 1484 1486 1488
1460 1459 1458 1457 1457 1457 1456 1455 1454 1453 1453 1453 1454 1452 1451 1451 1451 1449 1448 1446 1445 1444 1446 1447 1447 1452 1452 1451 1449 1453 1452 1455 1456 1454 1450 1451 1451 1454 1455 1456 1460 1462 1464 1466 1469 1472 1475 1477 1479 1481 1484 1486 1487 1489
1459 1458 1458 1457 1457 1456 1455 1455 1454 1454 1454 1454 1454 1453 1452 1452 1451 1450 1449 1447 1446 1446 1449 1452 1454 1456 1456 1455 1454 1457 1456 1455 1456 1452 1451 1452 1453 1457 1459 1462 1464 1464 1467 1469 1471 1473 1476 1478 1480 1482 1485 1487 1488 1490
1458 1458 1458 1458 1457 1456 1456 1455 1455 1453 1453 1453 1454 1454 1454 1453 1453 1452 1451 1449 1447 1447 1450 1453 1455 1457 1457 1456 1456 1456 1456 1456 1455 1453 1451 1453 1455 1457 1459 1463 1464 1467 1470 1471 1473 1476 1477 1479 1481 1483 1486 1488 1489 1491
1458 1459 1459 1458 1458 1457 1456 1454 1454 1453 1452 1452 1452 1452 1453 1454 1454 1454 1453 1451 1450 1450 1451 1454 1456 1456 1456 1456 1455 1455 1454 1454 1455 1455 1455 1455 1457 1460 1463 1465 1467 1470 1472 1474 1476 1478 1479 1481 1483 1485 1487 1489 1491 1492
1460 1460 1460 1459 1459 1458 1458 1455 1453 1452 1451 1450 1451 1452 1453 1453 1453 1454 1453 1453 1452 1452 1453 1453 1455 1456 1456 1456 1456 1454 1454 1455 1456 1456 1458 1460 1462 1462 1465 1469 1472 1474 1475 1477 1478 1480 1481 1483 1485 1487 1489 1490 1493 1495
1461 1461 1461 1460 1459 1457 1455 1454 1453 1452 1451 1450 1451 1452 1453 1453 1453 1452 1453 1454 1454 1454 1453 1454 1455 1457 1458 1458 1458 1458 1459 1459 1460 1461 1463 1464 1466 1468 1471 1474 1475 1477 1478 1479 1480 1481 1483 1485 1486 1488 1490 1492 1494 1496
1462 1462 1460 1459 1458 1456 1454 1452 1452 1451 1451 1450 1450 1451 1451 1451 1450 1452 1454 1455 1455 1455 1454 1455 1456 1458 1459 1460 1461 1462 1463 1464 1465 1466 1467 1469 1471 1473 1475 1476 1476 1478 1479 1479 1480 1483 1484 1486 1487 1488 1490 1492 1494 1496
1462 1461 1460 1459 1458 1455 1451 1450 1450 1451 1450 1450 1450 1447 1446 1445 1448 1450 1454 1455 1456 1457 1458 1458 1459 1459 1461 1461 1462 1463 1465 1466 1467 1469 1470 1472 1473 1474 1475 1477 1477 1478 1478 1479 1480 1482 1483 1485 1486 1488 1490 1492 1494 1496
1464 1462 1462 1459 1456 1453 1450 1449 1450 1450 1452 1450 1448 1442 1443 1446 1451 1450 1452 1453 1456 1457 1458 1459 1460 1461 1461 1462 1463 1465 1466 1467 1468 1470 1471 1472 1473 1473 1475 1476 1477 1478 1479 1480 1481 1482 1483 1483 1485 1486 1488 1491 1492 1495
1461 1458 1456 1451 1451 1453 1452 1453 1451 1451 1451 1448 1446 1443 1442 1447 1451 1450 1446 1447 1451 1454 1456 1457 1458 1460 1461 1462 1463 1464 1465 1467 1469 1469 1471 1472 1473 1474 1474 1476 1477 1478 1479 1481 1481 1482 1482 1482 1483 1485 1487 1490 1491 1492
1458 1452 1449 1450 1450 1450 1452 1450 1449 1449 1448 1446 1441 1441 1444 1446 1445 1442 1441 1444 1447 1450 1453 1455 1456 1457 1458 1459 1461 1463 1465 1467 1468 1469 1470 1471 1471 1472 1472 1474 1475 1476 1477 1480 1481 1481 1480 1480 1482 1484 1487 1489 1490 1491
1450 1448 1446 1443 1443 1445 1445 1444 1444 1441 1438 1436 1434 1436 1439 1439 1439 1439 1440 1443 1447 1449 1451 1453 1455 1457 1458 1458 1460 1462 1464 1466 1468 1470 1470 1471 1471 1472 1473 1474 1474 1475 1478 1480 1480 1481 1481 1483 1484 1486 1487 1488 1489 1490
1445 1442 1441 1436 1433 1431 1431 1431 1431 1430 1430 1430 1432 1434 1434 1433 1434 1436 1441 1444 1446 1448 1450 1452 1454 1456 1458 1460 1462 1464 1465 1466 1468 1469 1471 1472 1473 1475 1476 1476 1477 1477 1478 1479 1480 1481 1482 1483 1484 1485 1487 1488 1489 1489
1439 1438 1436 1434 1433 1430 1430 1430 1430 1431 1431 1431 1432 1434 1435 1436 1437 1439 1441 1444 1446 1448 1449 1451 1453 1455 1458 1460 1462 1464 1465 1465 1467 1468 1469 1471 1473 1474 1475 1476 1477 1478 1478 1479 1481 1482 1482 1483 1484 1485 1486 1486 1487 1488
1438 1438 1435 1434 1432 1431 1430 1430 1430 1431 1431 1432 1433 1434 1436 1438 1440 1442 1443 1444 1446 1447 1449 1451 1453 1454 1455 1458 1460 1461 1462 1465 1466 1467 1468 1470 1472 1474 1475 1476 1478 1479 1479 1478 1479 1479 1480 1482 1482 1482 1482 1482 1483 1486
1436 1437 1435 1433 1431 1431 1430 1430 1431 1432 1433 1433 1434 1435 1437 1438 1440 1441 1442 1444 1446 1447 1448 1450 1451 1453 1454 1456 1458 1460 1461 1463 1464 1466 1468 1469 1471 1473 1475 1476 1476 1477 1477 1477 1478 1478 1477 1478 1480 1481 1481 1481 1481 1483
1434 1434 1434 1432 1430 1428 1427 1427 1426 1426 1428 1429 1430 1432 1433 1434 1435 1437 1439 1441 1443 1445 1446 1448 1450 1451 1453 1455 1457 1458 1460 1462 1465 1466 1468 1470 1471 1473 1474 1475 1475 1476 1477 1477 1477 1478 1478 1479 1479 1479 1480 1481 1481 1482
Wind_Speed
32 34 34 35 34 33 32 31 30 29 27 26 25 24 23 22 22 23 25 21 22 9 15 12 14 17 12 6 2 5 3 6 4 2 1 3 4 5 3 6 8 7 6 4 3 3 4 3 2 5 10 21 20 13
33 33 32 33 34 33 32 30 29 27 26 25 24 22 23 23 24 23 25 23 22 25 8 10 19 31 28 24 17 8 5 2 6 2 3 1 2 3 2 8 2 4 7 6 5 6 3 8 18 27 25 25 17 15
29 31 31 31 30 28 26 24 24 25 24 23 22 21 21 18 19 27 24 24 23 20 21 25 31 31 26 26 22 15 15 7 3 3 6 2 4 3 2 5 3 1 5 5 5 3 10 23 25 24 18 16 13 12
27 26 25 27 24 22 20 18 18 19 19 20 20 19 20 21 20 22 27 28 26 5 4 9 13 17 19 29 26 23 14 12 11 7 7 2 3 8 5 3 3 4 5 7 4 6 12 15 20 18 14 11 10 7
19 22 25 25 21 19 18 19 19 17 13 11 12 14 16 19 19 22 24 26 25 15 2 5 10 17 18 20 26 28 18 20 11 6 3 4 6 3 2 5 1 3 6 5 5 22 11 16 21 18 17 15 11 7
15 19 24 25 22 18 17 17 21 21 16 8 1 5 8 11 13 13 10 17 18 17 1 2 6 11 13 16 21 29 25 18 17 7 6 5 5 5 3 3 1 5 9 24 10 29 24 22 26 18 14 9 5 5
10 15 19 21 23 25 26 28 30 29 23 22 14 10 9 9 14 5 3 1 16 17 4 3 3 3 11 16 16 24 26 23 14 14 7 7 4 5 3 2 4 23 23 30 30 31 21 19 12 11 10 8 4 6
6 10 12 13 14 16 18 22 25 25 22 19 19 18 17 12 6 1 3 7 20 14 6 2 1 1 12 6 2 22 10 9 6 7 3 4 4 4 2 5 17 27 30 30 26 13 21 18 18 13 7 6 5 9
4 7 9 8 5 8 11 18 23 22 19 16 13 10 10 8 6 11 17 17 17 5 4 2 2 1 6 5 7 10 13 3 6 2 1 5 0 2 7 8 13 32 23 26 22 20 21 16 10 7 7 7 9 10
8 9 11 10 6 5 10 15 19 18 16 14 13 5 4 6 6 6 3 4 6 4 3 2 3 2 9 6 3 2 1 1 2 3 6 3 3 8 16 13 11 28 23 27 26 19 14 11 11 10 11 9 9 7
7 11 13 11 9 8 8 11 16 20 16 13 8 6 4 1 3 2 2 3 3 2 2 3 3 2 13 2 3 2 1 1 2 4 4 2 3 7 19 17 15 22 26 20 14 18 18 17 13 11 10 11 10 8
7 13 13 7 5 3 3 9 15 17 16 12 3 3 3 4 3 2 3 3 1 3 1 2 3 6 4 1 2 1 2 2 3 1 3 2 4 5 9 27 25 30 30 26 22 20 17 15 12 10 7 7 8 7
10 12 10 4 1 1 4 8 12 16 13 3 1 2 3 2 3 3 5 4 4 5 5 8 2 3 4 5 4 4 2 3 1 2 2 4 4 18 24 35 34 30 26 22 17 11 8 6 11 9 8 7 7 6
9 9 7 2 1 3 7 9 12 16 7 3 4 5 2 3 3 1 1 2 3 8 12 13 4 5 5 4 2 4 2 2 2 1 2 4 17 32 36 35 32 25 20 15 11 9 8 15 10 8 6 6 6 8
8 7 4 3 2 5 8 10 13 12 3 2 1 2 3 4 4 2 2 2 6 8 9 1 4 4 2 2 2 3 1 2 2 1 3 17 2 23 31 30 28 22 17 14 13 14 14 12 11 9 9 9 11 12
5 2 1 3 4 5 9 10 6 5 2 2 3 4 8 4 6 5 5 4 6 7 4 4 2 3 3 1 2 2 2 1 2 2 15 4 19 22 24 22 19 18 17 15 12 15 14 13 13 14 12 13 13 11
3 2 6 5 4 5 9 9 3 2 2 2 4 5 4 3 2 4 2 6 6 3 2 3 4 2 2 1 1 3 2 2 7 12 11 19 24 22 19 13 15 15 14 13 14 13 13 12 13 14 14 14 13 11
6 5 5 0 1 5 4 3 2 1 2 2 2 2 4 1 3 4 5 5 1 3 3 2 2 3 1 0 1 1 3 7 6 7 6 20 18 15 15 19 15 13 14 12 12 12 13 13 14 14 14 12 11 13
2 1 3 1 4 4 2 2 2 2 2 2 3 1 3 4 6 6 5 11 12 9 9 3 2 1 1 2 2 5 5 2 2 3 13 22 20 20 21 17 15 13 15 15 13 13 12 10 10 12 12 11 15 16
6 4 2 3 4 2 2 3 3 2 3 3 5 6 5 2 1 2 2 1 2 2 3 2 2 2 2 3 5 5 4 5 8 16 17 22 24 25 23 21 18 17 18 13 11 13 12 13 16 16 14 14 14 16
5 4 3 6 3 3 3 3 2 3 2 3 7 9 0 2 3 6 5 3 3 2 2 3 7 5 2 3 8 5 5 14 17 19 25 24 19 18 16 11 15 7 7 10 10 11 10 12 14 14 16 13 15 14
3 4 5 5 2 2 4 4 5 3 3 3 3 5 4 3 3 4 4 2 2 2 2 6 8 7 8 8 6 8 11 13 14 11 10 12 19 20 23 22 16 12 8 7 6 8 10 10 11 13 11 12 13 11
3 2 2 2 2 3 6 4 3 0 1 4 1 4 2 4 5 7 4 2 1 1 5 10 12 10 8 9 10 11 11 9 9 12 16 16 14 14 12 8 6 6 10 7 9 7 8 10 10 11 10 13 11 11
3 2 2 2 2 4 4 1 2 2 1 1 0 3 4 5 9 2 2 4 7 8 12 12 12 15 13 13 12 9 6 6 3 5 9 10 9 7 6 5 6 9 8 10 13 14 11 12 12 11 11 13 10 11
2 2 2 4 4 4 3 3 2 2 1 3 3 2 3 5 3 1 4 8 16 14 14 13 11 10 10 8 7 9 10 8 10 9 9 6 5 6 6 7 3 8 10 14 15 13 13 10 11 13 14 15 13 12
2 5 8 5 3 2 2 2 2 3 2 3 4 2 3 3 2 4 7 23 24 22 19 14 13 13 16 12 10 10 11 10 6 4 5 10 6 7 7 8 9 11 7 6 6 8 11 16 15 15 11 9 9 10
3 5 8 6 6 4 3 5 3 2 3 4 3 2 2 2 4 4 16 25 23 19 15 15 15 12 13 13 16 9 6 8 7 9 8 11 8 12 11 11 15 9 14 8 7 5 4 11 10 7 9 8 4 8
7 5 6 12 10 18 5 3 5 6 4 7 4 5 5 5 5 10 18 20 17 15 15 16 11 13 12 13 17 19 18 19 21 16 12 8 8 10 8 8 4 8 10 8 7 7 8 6 7 12 11 10 10 10
5 6 8 10 8 4 8 7 4 1 3 3 2 1 1 2 11 16 23 18 15 14 13 15 18 15 15 16 18 16 12 15 14 13 10 11 9 8 7 8 7 7 7 10 9 10 8 7 10 11 8 9 11 4
5 5 4 2 2 0 2 4 4 5 6 6 7 11 11 13 15 16 20 19 18 13 12 12 22 18 17 13 17 15 15 15 10 13 14 11 8 13 12 9 7 6 8 12 10 9 8 7 6 4 4 5 7 8
13 7 5 5 4 7 8 5 6 8 12 16 16 17 16 16 19 16 14 13 16 14 12 10 21 16 12 16 16 16 17 15 10 13 9 9 11 13 14 10 9 6 11 10 2 11 9 5 4 4 3 4 12 11
5 4 5 2 3 6 7 8 10 8 17 20 12 12 15 14 13 18 19 16 15 15 13 13 13 16 12 14 11 9 15 16 10 15 13 11 11 14 12 7 7 5 2 6 10 5 2 8 6 8 4 3 6 14
4 9 11 5 3 4 6 5 4 8 10 13 9 19 18 17 8 15 18 20 17 16 15 12 12 11 17 18 16 11 16 15 14 10 12 13 13 14 10 8 7 6 4 3 1 2 5 8 6 2 2 7 7 7
Wind_Direction
318 317 315 313 311 307 304 301 296 292 288 280 270 262 254 242 227 229 241 242 233 237 247 230 249 241 240 232 214 309 6 358 29 40 124 274 114 241 118 176 167 173 158 193 139 140 251 262 2 163 138 130 129 115
322 322 322 320 315 310 304 296 292 287 281 277 274 269 254 243 227 224 235 234 240 237 249 231 249 242 246 250 263 263 170 200 224 111 273 164 2 84 68 277 146 178 173 172 165 199 232 104 127 131 138 136 135 128
331 328 329 329 328 323 312 302 291 285 276 270 266 261 253 241 229 213 232 234 232 236 256 254 252 257 247 245 247 223 212 183 229 263 222 171 160 92 216 228 140 35 137 110 93 290 129 116 133 141 150 142 144 136
334 338 344 342 344 350 349 339 322 306 289 271 260 251 242 233 224 214 225 232 233 197 245 266 260 245 250 233 224 225 231 207 277 318 257 125 246 186 200 176 120 208 121 128 74 97 116 140 148 154 148 142 142 134
355 6 3 355 356 357 354 352 346 333 306 280 255 242 232 226 221 220 227 234 233 209 243 273 282 260 244 230 222 225 234 217 278 307 201 198 178 145 344 50 235 211 163 132 200 170 148 162 169 162 154 161 166 169
18 22 21 19 18 15 16 21 25 28 35 35 302 223 218 216 198 179 205 236 224 223 237 280 263 262 239 222 215 210 214 223 262 221 236 132 151 126 102 176 325 151 151 134 138 167 143 134 155 157 154 169 187 210
29 34 35 39 42 47 54 52 45 43 47 52 67 94 114 133 158 129 180 236 182 185 209 226 244 270 212 195 202 207 217 245 232 233 228 152 145 122 95 150 96 126 124 124 133 134 127 154 152 161 171 183 202 210
24 30 30 35 37 46 48 36 32 28 36 56 67 83 106 113 149 201 250 164 166 173 249 249 356 39 129 122 201 221 216 197 244 223 141 120 106 101 124 190 131 139 136 139 144 154 157 158 159 171 197 223 243 243
299 338 353 9 16 12 18 15 15 10 3 360 357 5 43 46 53 104 138 157 181 229 301 269 109 130 182 245 236 175 173 216 232 109 129 114 156 166 201 197 153 155 151 146 141 138 144 153 161 169 180 198 218 230
292 308 311 312 306 308 334 352 4 12 16 21 32 34 57 108 60 85 118 156 205 244 249 303 63 130 188 207 288 219 278 36 68 246 138 105 221 193 190 201 211 178 171 158 143 146 156 161 172 179 199 214 221 249
299 316 316 307 295 291 317 348 2 11 21 19 27 44 144 140 286 283 233 225 176 195 222 275 137 137 204 202 187 70 145 124 89 268 127 220 245 219 202 203 187 175 170 171 168 169 183 189 186 180 194 212 226 240
310 322 329 322 311 316 333 348 355 1 356 334 321 222 217 279 276 314 294 322 11 44 318 282 268 159 116 186 90 5 125 73 210 199 110 230 255 171 198 196 167 164 162 159 168 166 168 177 181 189 183 177 185 193
308 325 333 333 360 36 342 343 347 349 348 348 327 221 219 249 32 14 354 327 9 12 2 329 356 73 79 94 42 12 74 214 34 74 219 225 181 151 158 153 146 151 154 153 148 158 179 169 158 157 162 191 194 219
307 321 322 313 357 352 338 334 333 340 343 341 338 353 25 9 30 333 273 304 337 355 347 351 17 57 53 60 38 327 262 63 58 81 242 323 166 148 148 148 150 148 156 157 154 158 146 143 138 156 164 170 177 169
307 316 313 286 299 336 333 330 322 323 309 314 319 35 19 317 292 342 25 14 350 354 358 247 52 86 62 86 237 278 260 239 107 215 336 330 121 144 141 142 143 146 151 152 151 148 145 147 151 142 142 136 150 152
313 329 350 281 276 303 325 339 338 0 337 344 35 22 353 40 11 48 60 33 6 1 357 18 51 61 56 96 273 27 50 119 83 330 319 10 139 128 126 135 141 147 149 149 150 158 161 159 155 146 155 147 148 143
306 292 306 285 277 297 320 337 7 306 328 61 39 43 84 73 34 23 46 16 358 37 68 25 30 55 307 131 173 8 77 63 331 332 6 151 138 137 142 142 146 147 144 145 143 158 172 164 157 168 160 147 158 148
262 303 326 113 289 335 355 354 356 327 40 82 102 3 36 36 54 52 57 25 28 88 64 94 109 49 46 294 92 37 348 339 324 342 125 156 152 150 162 160 153 149 144 144 150 152 164 158 164 170 176 173 177 156
251 142 137 53 358 3 351 279 244 288 143 144 131 139 74 80 71 110 83 63 80 98 109 124 85 142 217 213 264 300 313 292 345 97 144 161 158 159 158 147 134 134 142 138 140 144 142 160 185 181 184 158 151 148
127 117 52 358 345 343 288 262 231 270 249 196 181 153 107 89 73 148 168 200 103 146 78 86 163 192 215 266 267 266 252 208 168 123 112 133 149 157 137 138 135 126 129 135 141 151 149 142 138 136 140 138 141 148
113 54 30 7 344 304 272 326 313 283 247 248 152 143 268 311 259 214 203 173 33 36 86 127 149 143 98 109 93 72 163 167 152 134 122 116 112 111 112 127 136 164 151 154 156 160 167 167 164 163 159 159 156 154
54 37 12 3 303 273 267 206 190 287 272 304 74 121 149 268 260 199 169 84 27 337 159 161 167 154 136 126 107 110 120 122 119 121 142 153 141 140 132 129 133 138 138 144 150 162 174 168 173 175 179 176 170 171
66 41 340 292 277 262 274 320 211 261 48 337 19 141 194 196 212 181 90 83 80 114 129 129 130 131 139 134 141 142 137 131 129 136 141 135 137 154 170 190 215 256 240 224 195 162 159 178 178 171 172 182 171 178
336 254 274 278 254 262 273 299 358 322 296 330 216 251 185 180 164 130 117 136 163 162 148 135 137 141 141 148 153 146 154 172 199 161 145 143 150 167 185 211 171 186 177 144 161 169 177 192 193 187 191 200 192 195
269 227 252 287 264 285 354 1 41 40 322 333 299 254 157 101 40 321 162 161 173 180 173 169 176 185 166 150 153 154 154 160 169 173 173 188 215 214 203 191 200 208 204 172 171 194 196 204 200 199 203 204 201 210
227 214 183 216 183 168 187 215 261 204 208 237 235 306 85 104 140 242 189 177 185 182 189 198 207 215 222 221 198 184 171 163 169 208 205 209 223 209 194 206 201 185 200 218 197 202 220 228 222 194 171 203 217 210
242 231 214 217 152 151 285 259 208 195 226 227 242 116 104 201 219 247 169 175 181 192 198 202 206 214 224 225 218 204 167 178 180 149 181 193 203 183 186 205 213 208 186 193 184 148 149 160 160 182 181 187 214 214
239 238 194 196 198 198 192 224 211 208 224 217 190 162 187 198 216 160 174 173 169 181 197 198 184 170 182 169 155 146 136 137 141 141 130 110 117 156 161 137 156 180 188 174 148 128 155 168 183 202 215 198 211 227
248 250 269 274 309 203 188 183 184 135 98 78 89 125 155 109 162 171 170 159 167 187 200 207 211 200 189 172 176 167 167 173 164 163 163 144 135 134 149 165 141 130 144 157 161 163 173 165 182 197 187 195 196 190
248 254 277 322 257 136 48 103 106 109 142 134 125 128 135 149 159 161 164 174 185 184 173 181 158 161 160 171 177 185 187 185 183 181 185 173 140 137 142 159 177 169 160 152 138 132 123 152 161 185 205 218 206 212
331 315 228 242 252 168 147 160 181 154 142 152 151 138 143 151 164 171 170 171 175 183 193 195 180 180 184 177 180 187 192 192 190 173 155 179 161 145 151 153 151 184 226 219 268 221 238 232 264 237 218 239 218 200
230 254 333 288 256 204 205 203 203 162 143 145 142 154 156 167 176 185 188 177 184 198 206 201 188 187 189 190 176 172 186 177 176 174 178 172 170 168 164 194 231 254 39 243 259 289 123 177 199 215 247 278 180 181
238 260 256 270 246 229 227 238 225 193 172 176 176 181 185 185 189 201 201 199 198 206 207 201 200 206 189 174 171 174 178 162 158 166 171 169 163 166 174 186 205 223 236 171 195 221 166 144 135 118 61 100 125 146